Weather History for Alexandroupoli, Greece

Change the Weather History Date:

Saturday, October 26, 2013

  Actual Average Record
Temperature  
Mean Temperature 54 °F -  
Max Temperature 63 °F 60 °F 75 °F (2004)
Min Temperature 46 °F 45 °F 37 °F (2000)
Degree Days  
Heating Degree Days 10    
Growing Degree Days 4 (Base 50)    
Moisture  
Dew Point 47 °F    
Average Humidity 72    
Maximum Humidity 100    
Minimum Humidity 49    
Precipitation  
Precipitation 0.00 in 0.09 in - ()
Sea Level Pressure  
Sea Level Pressure 30.25 in    
Wind  
Wind Speed 10 mph ()    
Max Wind Speed 17 mph    
Max Gust Speed -    
Visibility 5.9 miles    
Events      
Averages and records for this station are not official NWS values.
T = Trace of Precipitation, MM = Missing Value Source: Averaged Metar Reports

Daily Weather History Graph

Daily Weather History Graph

Search for Another Location

Airport:

Trip Planner

Search our weather history database for the weather conditions in past years. The results will help you decide how hot, cold, wet, or windy it might be!

Date:

Astronomy

Oct. 26, 2013 Rise Set
Actual Time 7:39 AM EEST 6:19 PM EEST
Civil Twilight 7:11 AM EEST 6:48 PM EEST
Nautical Twilight 6:39 AM EEST 7:20 PM EEST
Astronomical Twilight 6:07 AM EEST 7:52 PM EEST
Moon No Moon Rise 1:45 PM EEST (10/26)
Length of Visible Light 11h 36m
Length of Day
10h 40m
Waning Gibbous, 56% of the Moon is Illuminated
Oct 26
Waning Gibbous
Oct 27
Last Quarter
Nov 3
New
Nov 10
First Quarter
Nov 17
Full

Hourly Weather History & Observations

Time (EEST) Temp. Windchill Dew Point Humidity Pressure Visibility Wind Dir Wind Speed Gust Speed Precip Events Conditions
5:20 AM 48.2 °F - 46.4 °F 93% 30.24 in 6.2 mi NE 6.9 mph - N/A   Partly Cloudy
5:50 AM 48.2 °F - 46.4 °F 93% 30.24 in 6.2 mi NE 5.8 mph - N/A   Partly Cloudy
6:20 AM 46.4 °F 43.5 °F 44.6 °F 93% 30.24 in 6.2 mi NE 5.8 mph - N/A   Partly Cloudy
6:50 AM 46.4 °F 42.4 °F 46.4 °F 100% 30.24 in 6.2 mi ENE 8.1 mph - N/A   Partly Cloudy
7:20 AM 46.4 °F 41.9 °F 44.6 °F 93% 30.24 in 6.2 mi ENE 9.2 mph - N/A   Partly Cloudy
7:50 AM 48.2 °F - 46.4 °F 93% 30.24 in 5.6 mi ENE 11.5 mph - N/A   Partly Cloudy
8:20 AM 48.2 °F - 46.4 °F 93% 30.24 in 5.6 mi ENE 11.5 mph - N/A   Partly Cloudy
8:50 AM 50.0 °F - 46.4 °F 87% 30.27 in 5.6 mi ENE 11.5 mph - N/A   Unknown
9:00 AM 50 °F - 46 °F 81% 30.28 in 6 mi ENE 11.5 mph - -   Mist
9:20 AM 51.8 °F - 48.2 °F 88% 30.27 in 5.6 mi NE 10.4 mph - N/A   Unknown
9:50 AM 55.4 °F - 50.0 °F 82% 30.27 in 5.6 mi ENE 10.4 mph - N/A   Unknown
10:20 AM 57.2 °F - 50.0 °F 77% 30.27 in - ENE 11.5 mph - N/A   Clear
10:50 AM 59.0 °F - 51.8 °F 77% 30.30 in - ENE 13.8 mph - N/A   Clear
11:20 AM 59.0 °F - 50.0 °F 72% 30.30 in - ENE 15.0 mph - N/A   Clear
11:50 AM 59.0 °F - 46.4 °F 63% 30.27 in - ENE 16.1 mph - N/A   Clear
12:20 PM 59.0 °F - 46.4 °F 63% 30.27 in - ENE 17.3 mph - N/A   Clear
12:50 PM 60.8 °F - 48.2 °F 63% 30.27 in - ENE 15.0 mph - N/A   Clear
1:20 PM 62.6 °F - 50.0 °F 63% 30.27 in - ENE 15.0 mph - N/A   Clear
1:50 PM 62.6 °F - 48.2 °F 59% 30.27 in - ENE 15.0 mph - N/A   Clear
2:20 PM 62.6 °F - 48.2 °F 59% 30.27 in - ENE 15.0 mph - N/A   Clear
2:50 PM 62.6 °F - 48.2 °F 59% 30.24 in - ENE 15.0 mph - N/A   Clear
3:00 PM 62 °F - 48 °F 49% 30.26 in 6 mi ENE 15.0 mph - -  
3:20 PM 62.6 °F - 48.2 °F 59% 30.24 in - ENE 16.1 mph - N/A   Clear
3:50 PM 64.4 °F - 48.2 °F 56% 30.21 in - ENE 13.8 mph - N/A   Clear
4:20 PM 64.4 °F - 48.2 °F 56% 30.21 in - ENE 13.8 mph - N/A   Clear
4:50 PM 62.6 °F - 48.2 °F 59% 30.21 in - ENE 13.8 mph - N/A   Clear
5:20 PM 62.6 °F - 48.2 °F 59% 30.21 in - ENE 11.5 mph - N/A   Clear
5:50 PM 60.8 °F - 46.4 °F 59% 30.21 in - ENE 9.2 mph - N/A   Clear
6:20 PM 60.8 °F - 46.4 °F 59% 30.21 in - ENE 11.5 mph - N/A   Clear
6:50 PM 59.0 °F - 48.2 °F 67% 30.21 in - NE 12.7 mph - N/A   Clear
7:20 PM 59.0 °F - 48.2 °F 67% 30.21 in - NE 8.1 mph - N/A   Clear
7:50 PM 57.2 °F - 48.2 °F 72% 30.24 in - NNE 5.8 mph - N/A   Clear
8:20 PM 55.4 °F - 48.2 °F 77% 30.24 in - NNE 6.9 mph - N/A   Clear
8:50 PM 53.6 °F - 44.6 °F 72% 30.24 in - North 5.8 mph - N/A   Clear
9:00 PM 53 °F - 44 °F 64% 30.25 in 6 mi North 5.8 mph - -   Clear
9:20 PM 51.8 °F - 44.6 °F 76% 30.24 in - North 4.6 mph - N/A   Clear